This is the latest recevied weather packets stored in our database for station/object OK1PNK-5. If no packets are shown the sender has not sent any weather packets the latest 1 day(s).
| Time | Temp. | Humidity | Pressure | Rain* | Wind** | Luminosity | Snow |
|---|---|---|---|---|---|---|---|
| 1778081994 | 21.11° C | 62% | 962.7 hPa | 0 mm | - | - | - |
| 1778081394 | 21.11° C | 63% | 962.8 hPa | 0 mm | - | - | - |
| 1778080194 | 21.11° C | 63% | 963.2 hPa | 0 mm | - | - | - |
| 1778079594 | 21.11° C | 63% | 963.2 hPa | 0 mm | - | - | - |
| 1778078994 | 21.11° C | 62% | 963.2 hPa | 0 mm | - | - | - |
| 1778074794 | 22.22° C | 60% | 963.8 hPa | 0 mm | - | - | - |
| 1778074194 | 22.22° C | 61% | 963.7 hPa | 0 mm | - | - | - |
| 1778070594 | 20.56° C | 61% | 964.2 hPa | 0 mm | - | - | - |
| 1778069394 | 20.56° C | 62% | 964.6 hPa | 0 mm | - | - | - |
| 1778068794 | 20.56° C | 63% | 964.7 hPa | 0 mm | - | - | - |
| 1778068194 | 20.56° C | 63% | 964.7 hPa | 0 mm | - | - | - |
| 1778067594 | 20.56° C | 63% | 964.7 hPa | 0 mm | - | - | - |
| 1778066994 | 20.56° C | 63% | 964.8 hPa | 0 mm | - | - | - |
| 1778066394 | 20.56° C | 65% | 964.9 hPa | 0 mm | - | - | - |
| 1778065794 | 20° C | 66% | 964.9 hPa | 0 mm | - | - | - |
| 1778065194 | 19.44° C | 67% | 965 hPa | 0 mm | - | - | - |
| 1778064594 | 19.44° C | 69% | 965.1 hPa | 0 mm | - | - | - |
| 1778063994 | 18.89° C | 70% | 965.2 hPa | 0 mm | - | - | - |
| 1778063394 | 18.89° C | 69% | 965.3 hPa | 0 mm | - | - | - |
| 1778062794 | 18.33° C | 71% | 965.5 hPa | 0 mm | - | - | - |
| 1778062194 | 17.78° C | 73% | 965.7 hPa | 0 mm | - | - | - |
| 1778061594 | 17.78° C | 73% | 965.7 hPa | 0 mm | - | - | - |
| 1778059794 | 17.78° C | 77% | 965.7 hPa | 0 mm | - | - | - |
| 1778059194 | 17.22° C | 77% | 965.7 hPa | 0 mm | - | - | - |
| 1778058594 | 16.67° C | 78% | 965.8 hPa | 0 mm | - | - | - |
* Rain latest hour (hover to see other rain measurements)
** Current wind speed in m/s (hover to see current wind gust speed)